Вернуться в каталог

NOAA 16 DEB

АктивенSSO
NORAD 42376·DEBRIS·🇺🇸 United States

Запущен Sep 21, 2000 с Vandenberg Space Force Base

Loading…

Ближайшие Пролёты (ближайшие 24 часа)

TLE

УстаревающийSource: Space-Track

Эпоха: Sep 10, 2026, 01:41 UTC

1 42376U 00055RU  26253.07060169  .00005144  00000-0  22853-2 0  9995
2 42376  98.7525 200.2158 0077026 258.0351 101.2184 14.21819936540532

Отслеживайте NOAA 16 DEB в реальном времени с AllMySat

Download on the App Store